When you browse on this site, cookies collect data to enhance your experience and personalize the content and advertising you see.
Visit our Privacy Policy to learn more. By continuing to use the site, you agree to this use of cookies and data.
  • In Sweden
  • List of Countries
  • For 7 days
  • Water Temperature
  • Weather Map
  • Weather Widgets
  • user-avatar
    Login

    Hourly Weather Aguaviva

    Today, 29 May, Friday

    Time Temperature Precipitation Wind Pressure Humidity
    00:00 +18°C° 0 mm 1 mps 702 mmHg 60%
    01:00 +18°C° 0 mm 1 mps 701 mmHg 60%
    02:00 +16°C° 0 mm 1 mps 701 mmHg 60%
    03:00 +16°C° 0 mm 1 mps 701 mmHg 60%
    04:00 +18°C° 0 mm 1 mps 701 mmHg 59%
    05:00 +19°C° 0 mm 1 mps 700 mmHg 58%
    06:00 +20°C° 0 mm 1 mps 700 mmHg 57%
    07:00 +21°C° 0 mm 1 mps 700 mmHg 53%
    08:00 +22°C° 0 mm 1 mps 700 mmHg 49%
    09:00 +24°C° 0 mm 1 mps 701 mmHg 45%
    10:00 +25°C° 0 mm 2 mps 700 mmHg 42%
    11:00 +26°C° 0 mm 2 mps 700 mmHg 39%
    12:00 +27°C° 0 mm 2 mps 700 mmHg 36%
    13:00 +27°C° 0 mm 2 mps 699 mmHg 36%
    14:00 +27°C° 0 mm 2 mps 699 mmHg 36%
    15:00 +27°C° 0 mm 2 mps 699 mmHg 36%
    16:00 +27°C° 0 mm 2 mps 698 mmHg 37%
    17:00 +26°C° 0 mm 2 mps 698 mmHg 39%
    18:00 +26°C° 0 mm 2 mps 698 mmHg 41%
    19:00 +24°C° 0 mm 2 mps 698 mmHg 47%
    20:00 +21°C° 0 mm 2 mps 698 mmHg 54%
    21:00 +19°C° 0 mm 3 mps 698 mmHg 61%
    22:00 +18°C° 0 mm 3 mps 698 mmHg 63%
    23:00 +18°C° 0 mm 3 mps 698 mmHg 65%

    Tomorrow, 30 May, Saturday

    Time Temperature Precipitation Wind Pressure Humidity
    00:00 +17°C° 0 mm 3 mps 698 mmHg 67%
    01:00 +17°C° 0 mm 3 mps 698 mmHg 67%
    02:00 +16°C° 0 mm 2 mps 698 mmHg 68%
    03:00 +16°C° 0 mm 2 mps 698 mmHg 68%
    04:00 +16°C° 0 mm 2 mps 698 mmHg 66%
    05:00 +18°C° 0 mm 1 mps 698 mmHg 64%
    06:00 +18°C° 0 mm 1 mps 698 mmHg 62%
    07:00 +20°C° 0 mm 1 mps 699 mmHg 58%
    08:00 +21°C° 0 mm 1 mps 699 mmHg 54%
    09:00 +22°C° 0 mm 1 mps 699 mmHg 50%
    10:00 +24°C° 0 mm 2 mps 699 mmHg 47%
    11:00 +25°C° 0 mm 2 mps 699 mmHg 45%
    12:00 +26°C° 0 mm 2 mps 699 mmHg 42%
    13:00 +26°C° 0 mm 3 mps 699 mmHg 43%
    14:00 +26°C° 0 mm 3 mps 698 mmHg 43%
    15:00 +26°C° 0 mm 4 mps 698 mmHg 43%
    16:00 +26°C° 0 mm 4 mps 698 mmHg 46%
    17:00 +25°C° 0 mm 3 mps 697 mmHg 49%
    18:00 +24°C° 0 mm 3 mps 697 mmHg 52%
    19:00 +21°C° 0 mm 3 mps 697 mmHg 58%
    20:00 +20°C° 0 mm 2 mps 698 mmHg 63%
    21:00 +18°C° 0 mm 2 mps 698 mmHg 69%
    22:00 +18°C° 0 mm 2 mps 698 mmHg 69%
    23:00 +18°C° 0 mm 2 mps 698 mmHg 69%

    Day after tomorrow, 31 May, Sunday

    Time Temperature Precipitation Wind Pressure Humidity
    00:00 +17°C° 0 mm 2 mps 697 mmHg 69%
    01:00 +18°C° 0 mm 1 mps 697 mmHg 69%
    02:00 +18°C° 0 mm 1 mps 697 mmHg 69%
    03:00 +16°C° 0 mm 1 mps 697 mmHg 70%
    04:00 +18°C° 0 mm 1 mps 697 mmHg 67%
    05:00 +18°C° 0 mm 1 mps 697 mmHg 65%
    06:00 +19°C° 0 mm 1 mps 697 mmHg 63%
    07:00 +21°C° 0 mm 1 mps 698 mmHg 58%
    08:00 +22°C° 0 mm 1 mps 698 mmHg 53%
    09:00 +24°C° 0 mm 1 mps 698 mmHg 48%
    10:00 +25°C° 0 mm 2 mps 698 mmHg 46%
    11:00 +26°C° 0 mm 2 mps 698 mmHg 44%
    12:00 +27°C° 0 mm 2 mps 698 mmHg 42%
    13:00 +27°C° 0 mm 2 mps 698 mmHg 43%
    14:00 +27°C° 0 mm 3 mps 698 mmHg 45%
    15:00 +27°C° 0 mm 3 mps 698 mmHg 46%
    16:00 +26°C° 0.1 mm 3 mps 697 mmHg 49%
    17:00 +25°C° 0.1 mm 3 mps 697 mmHg 51%
    18:00 +25°C° 0.1 mm 3 mps 697 mmHg 54%
    19:00 +24°C° 0.2 mm 2 mps 697 mmHg 57%
    20:00 +21°C° 0.2 mm 2 mps 697 mmHg 61%
    21:00 +20°C° 0.2 mm 2 mps 698 mmHg 64%
    22:00 +21°C° 0.1 mm 1 mps 698 mmHg 66%
    23:00 +20°C° 0.1 mm 1 mps 697 mmHg 68%

    1 June, Monday

    Time Temperature Precipitation Wind Pressure Humidity
    00:00 +20°C° 0.1 mm 1 mps 697 mmHg 69%
    01:00 +20°C° 0.2 mm 1 mps 697 mmHg 69%
    02:00 +20°C° 0.2 mm 1 mps 697 mmHg 69%
    03:00 +20°C° 0.2 mm 1 mps 697 mmHg 69%
    04:00 +20°C° 0 mm 1 mps 697 mmHg 67%
    05:00 +20°C° 0 mm 1 mps 697 mmHg 65%
    06:00 +21°C° 0 mm 1 mps 697 mmHg 63%
    07:00 +22°C° 0 mm 1 mps 697 mmHg 57%
    08:00 +23°C° 0 mm 1 mps 698 mmHg 51%
    09:00 +25°C° 0 mm 1 mps 698 mmHg 46%
    10:00 +26°C° 0 mm 2 mps 698 mmHg 42%
    11:00 +27°C° 0 mm 2 mps 698 mmHg 39%
    12:00 +29°C° 0 mm 3 mps 698 mmHg 35%
    13:00 +28°C° 0.1 mm 3 mps 698 mmHg 39%
    14:00 +27°C° 0.1 mm 3 mps 697 mmHg 43%
    15:00 +27°C° 0.1 mm 3 mps 697 mmHg 48%
    16:00 +26°C° 0.3 mm 3 mps 697 mmHg 51%
    17:00 +25°C° 0.3 mm 3 mps 697 mmHg 55%
    18:00 +25°C° 0.3 mm 3 mps 697 mmHg 58%
    19:00 +22°C° 0.5 mm 3 mps 697 mmHg 65%
    20:00 +21°C° 0.5 mm 2 mps 697 mmHg 71%
    21:00 +19°C° 0.5 mm 2 mps 697 mmHg 78%
    22:00 +19°C° 0.4 mm 2 mps 697 mmHg 79%
    23:00 +18°C° 0.4 mm 2 mps 697 mmHg 80%

    2 June, Tuesday

    Time Temperature Precipitation Wind Pressure Humidity
    00:00 +18°C° 0.4 mm 2 mps 697 mmHg 81%
    01:00 +19°C° 0.2 mm 1 mps 697 mmHg 82%
    02:00 +19°C° 0.2 mm 1 mps 697 mmHg 83%
    03:00 +18°C° 0.2 mm 1 mps 697 mmHg 83%
    04:00 +18°C° 0 mm 1 mps 697 mmHg 80%
    05:00 +19°C° 0 mm 1 mps 697 mmHg 78%
    06:00 +19°C° 0 mm 1 mps 697 mmHg 75%
    07:00 +20°C° 0 mm 1 mps 697 mmHg 69%
    08:00 +21°C° 0 mm 1 mps 698 mmHg 64%
    09:00 +23°C° 0 mm 1 mps 698 mmHg 58%
    10:00 +24°C° 0.1 mm 2 mps 698 mmHg 55%
    11:00 +25°C° 0.1 mm 3 mps 698 mmHg 53%
    12:00 +26°C° 0.1 mm 3 mps 698 mmHg 50%
    13:00 +26°C° 0.2 mm 3 mps 697 mmHg 51%
    14:00 +26°C° 0.2 mm 4 mps 697 mmHg 52%
    15:00 +26°C° 0.2 mm 4 mps 696 mmHg 53%
    16:00 +25°C° 0.3 mm 4 mps 696 mmHg 57%
    17:00 +23°C° 0.3 mm 4 mps 695 mmHg 61%
    18:00 +22°C° 0.3 mm 4 mps 695 mmHg 65%
    19:00 +20°C° 0.2 mm 4 mps 695 mmHg 72%
    20:00 +19°C° 0.2 mm 3 mps 695 mmHg 78%
    21:00 +18°C° 0.2 mm 3 mps 695 mmHg 85%
    22:00 +17°C° 0 mm 3 mps 695 mmHg 86%
    23:00 +17°C° 0 mm 2 mps 695 mmHg 87%

    3 June, Wednesday

    Time Temperature Precipitation Wind Pressure Humidity
    00:00 +17°C° 0 mm 2 mps 694 mmHg 88%
    01:00 +17°C° 0 mm 2 mps 694 mmHg 88%
    02:00 +17°C° 0 mm 2 mps 693 mmHg 88%
    03:00 +18°C° 0 mm 1 mps 693 mmHg 88%
    04:00 +18°C° 0 mm 1 mps 693 mmHg 87%
    05:00 +18°C° 0 mm 1 mps 693 mmHg 85%
    06:00 +18°C° 0 mm 1 mps 693 mmHg 83%
    07:00 +19°C° 0.1 mm 2 mps 693 mmHg 77%
    08:00 +20°C° 0.1 mm 2 mps 693 mmHg 70%
    09:00 +22°C° 0.1 mm 3 mps 693 mmHg 63%
    10:00 +24°C° 0.4 mm 3 mps 693 mmHg 60%
    11:00 +25°C° 0.4 mm 4 mps 693 mmHg 56%
    12:00 +26°C° 0.4 mm 4 mps 693 mmHg 52%
    13:00 +26°C° 0.6 mm 4 mps 692 mmHg 55%
    14:00 +25°C° 0.6 mm 5 mps 692 mmHg 57%
    15:00 +25°C° 0.6 mm 5 mps 691 mmHg 60%
    16:00 +23°C° 0.4 mm 5 mps 691 mmHg 63%
    17:00 +22°C° 0.4 mm 5 mps 691 mmHg 67%
    18:00 +21°C° 0.4 mm 5 mps 691 mmHg 70%
    19:00 +20°C° 0.1 mm 5 mps 691 mmHg 73%
    20:00 +19°C° 0.1 mm 4 mps 691 mmHg 76%
    21:00 +18°C° 0.1 mm 4 mps 692 mmHg 79%
    22:00 +18°C° 0.2 mm 3 mps 692 mmHg 80%
    23:00 +18°C° 0.2 mm 3 mps 692 mmHg 81%
    Show more